Location: Unnamed
(48.6007°N, 2.4808°E)
Time: 21:17:49
(UTC+02:00)

METEOR M2 - Pass Details

Date: 25 March 2023
Orbit: 818 x 827 km, 98.4° (Epoch: 01 June)

Event Time Altitude Azimuth Distance (km) Brightness Sun altitude
Rises 05:55:55 0° 28° (NNE) 3,376 ? -8.6°
Reaches altitude 10° 05:59:11 10° 48° (NE) 2,435 ? -8.1°
Maximum altitude 06:02:36 17° 88° (E) 1,986 ? -7.5°
Drops below altitude 10° 06:05:59 10° 128° (SE) 2,420 ? -7.0°
Sets 06:09:12 0° 148° (SSE) 3,345 ? -6.4°
